Total_Precipitation_Accumulation
1.41 1.47 1.48 1.34 1.24 1.19 1.23 1.43 1.71 1.49 0.94 0.71 0.73 0.79 0.88 1.00 1.19 1.08 1.02 1.08 1.14 1.21 1.31 1.36 1.43 1.56 1.83 2.39 3.32 4.67 5.31 4.62 3.68 3.36 3.37 3.64 3.99 4.42
1.28 1.39 1.45 1.40 1.32 1.25 1.29 1.32 1.43 1.59 1.28 0.76 0.70 0.75 0.88 0.93 1.06 0.97 0.99 1.15 1.14 1.17 1.23 1.27 1.35 1.42 1.57 1.82 2.31 3.15 4.35 5.01 4.62 3.96 3.61 3.74 3.95 4.20
1.22 1.26 1.30 1.33 1.37 1.30 1.29 1.31 1.27 1.32 1.30 0.81 0.65 0.70 0.89 0.97 0.96 0.92 0.95 1.00 1.02 1.14 1.16 1.19 1.27 1.36 1.55 1.72 1.96 2.38 3.07 4.02 4.68 4.56 4.15 3.94 3.87 3.90
1.18 1.18 1.18 1.23 1.31 1.26 1.21 1.19 1.13 1.08 1.11 0.93 0.68 0.68 0.77 0.86 0.97 1.06 1.04 1.02 0.97 1.06 1.09 1.19 1.31 1.36 1.46 1.64 1.85 2.13 2.48 3.00 3.69 4.23 4.29 4.07 3.85 3.82
1.15 1.16 1.13 1.19 1.27 1.22 1.21 1.15 1.04 0.96 0.95 0.95 0.77 0.68 0.73 0.79 0.97 1.14 1.15 1.16 1.10 1.11 1.13 1.19 1.29 1.38 1.44 1.54 1.75 1.96 2.12 2.31 2.70 3.43 3.99 3.95 3.81 3.71
1.06 1.04 1.07 1.19 1.24 1.27 1.31 1.21 1.12 1.11 1.09 1.12 0.97 0.82 0.84 0.88 1.07 1.30 1.40 1.37 1.33 1.19 1.21 1.24 1.34 1.45 1.46 1.44 1.48 1.59 1.73 2.02 2.35 2.76 3.37 3.75 3.64 3.58
1.01 0.99 1.06 1.20 1.27 1.46 1.59 1.47 1.42 1.50 1.44 1.42 1.31 1.18 1.12 1.16 1.25 1.31 1.48 1.50 1.51 1.37 1.26 1.18 1.21 1.23 1.29 1.38 1.42 1.47 1.56 1.72 2.00 2.33 2.74 3.20 3.49 3.56
1.04 1.00 1.00 1.13 1.17 1.30 1.49 1.58 1.63 1.73 1.78 1.76 1.67 1.52 1.27 1.20 1.25 1.40 1.49 1.68 1.75 1.46 1.38 1.32 1.26 1.34 1.29 1.28 1.46 1.47 1.50 1.63 1.82 2.07 2.37 2.66 3.04 3.45
1.03 1.02 1.03 1.08 1.14 1.12 1.23 1.28 1.32 1.48 1.69 1.80 1.85 1.47 1.27 1.22 1.45 1.66 1.62 1.71 1.68 1.59 1.71 1.65 1.36 1.38 1.32 1.41 1.59 1.49 1.46 1.53 1.66 1.82 2.05 2.30 2.56 2.91
1.01 1.00 1.00 1.02 1.11 1.31 1.28 1.21 1.12 1.14 1.34 1.55 1.79 1.61 1.44 1.49 1.82 2.15 2.24 2.11 1.73 1.54 1.72 1.90 1.46 1.35 1.39 1.48 1.63 1.53 1.42 1.42 1.51 1.67 1.83 2.00 2.21 2.47
1.00 0.98 0.99 0.98 1.21 1.48 1.40 1.24 1.06 0.97 1.08 1.41 1.71 1.83 1.88 2.01 2.25 2.58 2.76 2.58 2.12 1.61 1.60 1.86 1.66 1.47 1.60 1.77 1.82 1.70 1.46 1.40 1.45 1.56 1.64 1.70 1.90 2.20
1.03 1.00 1.12 1.21 1.37 1.50 1.36 1.31 1.38 1.15 1.02 1.08 1.16 1.27 1.36 1.52 1.91 2.21 2.52 2.61 2.27 2.04 1.71 1.80 1.91 1.90 2.14 2.01 1.87 1.67 1.47 1.42 1.42 1.47 1.51 1.53 1.65 1.70
1.08 1.05 1.04 1.28 1.37 1.44 1.45 1.38 1.59 1.47 1.22 1.23 1.20 1.15 1.13 1.26 1.46 1.76 2.17 2.51 2.53 2.23 1.83 2.10 2.39 2.19 2.25 2.09 1.97 1.88 1.56 1.34 1.30 1.38 1.48 1.53 1.58 1.56
1.03 0.93 0.99 1.22 1.30 1.42 1.40 1.45 1.55 1.48 1.29 1.23 1.15 1.10 1.12 1.18 1.27 1.44 1.77 2.04 2.16 2.03 1.75 2.09 2.68 2.44 2.30 2.00 1.92 2.01 1.78 1.49 1.31 1.27 1.30 1.57 1.59 1.54
1.04 1.12 1.19 1.29 1.30 1.23 1.29 1.38 1.34 1.25 1.33 1.33 1.17 1.07 1.10 1.22 1.29 1.33 1.47 1.75 1.92 1.88 1.81 1.89 2.30 2.42 2.41 2.20 1.85 1.85 1.92 1.79 1.49 1.37 1.33 1.36 1.32 1.29
1.21 1.26 1.34 1.31 1.21 1.12 1.16 1.17 1.11 1.17 1.32 1.33 1.19 1.05 1.04 1.14 1.28 1.38 1.48 1.62 1.84 1.86 1.84 1.91 2.17 2.56 2.53 2.06 1.87 1.80 1.71 1.87 1.73 1.53 1.40 1.33 1.22 1.10
1.39 1.46 1.38 1.29 1.24 1.13 1.02 0.96 1.00 1.14 1.25 1.17 1.15 1.12 1.08 1.10 1.17 1.27 1.49 1.63 1.78 1.81 1.87 2.02 2.18 2.40 2.50 2.41 2.23 1.85 1.60 1.54 1.59 1.56 1.50 1.49 1.42 1.23
1.56 1.48 1.27 1.12 1.08 1.04 1.01 0.98 0.94 0.97 1.02 1.10 1.14 1.13 1.13 1.14 1.16 1.16 1.32 1.56 1.71 1.72 1.78 1.92 2.10 2.33 2.51 2.62 2.45 2.03 1.67 1.51 1.56 1.63 1.58 1.64 1.69 1.48
1.44 1.23 1.05 0.99 0.96 0.94 0.93 0.91 0.88 0.83 0.87 0.96 1.01 1.05 1.10 1.13 1.16 1.17 1.22 1.37 1.54 1.66 1.76 1.85 2.00 2.24 2.41 2.52 2.59 2.25 1.92 1.64 1.61 1.80 1.82 1.74 1.72 1.60
1.18 1.09 1.00 0.93 0.91 0.94 0.94 0.93 0.89 0.85 0.88 0.90 0.93 0.94 1.02 1.12 1.14 1.13 1.16 1.28 1.42 1.54 1.64 1.73 1.94 2.19 2.42 2.35 2.41 2.40 2.29 1.96 1.74 1.88 1.96 1.87 1.77 1.74
1.04 1.03 0.99 0.97 0.95 0.95 0.97 0.97 0.96 0.93 0.88 0.89 0.89 0.89 0.91 1.01 1.05 1.01 1.04 1.17 1.33 1.45 1.53 1.54 1.67 1.93 2.17 2.22 2.14 2.10 2.27 2.31 1.99 1.94 2.01 2.06 2.03 1.97
0.96 1.00 1.00 0.99 1.00 1.00 1.01 1.01 1.00 0.94 0.89 0.88 0.85 0.83 0.85 0.90 0.95 0.97 1.03 1.09 1.14 1.26 1.38 1.43 1.53 1.78 2.10 2.31 2.22 2.05 2.11 2.27 2.31 2.15 2.07 2.13 2.32 2.39
1.06 1.04 1.02 1.01 1.01 1.03 1.03 1.01 0.98 0.91 0.84 0.83 0.82 0.81 0.83 0.87 0.88 0.91 0.96 1.02 1.09 1.15 1.24 1.39 1.51 1.68 1.93 2.14 2.25 2.14 2.01 2.04 2.14 2.20 2.35 2.19 1.84 1.67